Find Starlink 33729

NORAD ID: 63647 Int'l Des: 2025-083 Owner: SPXS Country: US Constellation: starlink operational
LEOCIRCULAR

当前视图

正在加载3D地球...

About Starlink 33729

Starlink 33729 (NORAD 63647) is a starlink constellation satellite (v2 mini) launched Apr 25, 2025 by SPXS of US. It operates in LEO, CIRCULAR orbit with a mass of 575.00 kg.

关于 Starlink 33729

正在加载描述...

即将过境

Passes for default location (London). Set your location on the main map for personalized predictions.

高度历史

Loading altitude history...

两行轨道根数

1 63647U 25083P 26169.65025323 .00011225 00000-0 41644-3 0 9997
2 63647 43.0014 155.3672 0001649 278.7455 81.3210 15.27610120 65503
Epoch: Jun 18, 2026 • Age: 22 hours

当前状态

高度 483.3 km
速度 7.63 km/s
星下点 -6.38°S, 32.55°E
发射日期 Apr 25, 2025
运行时间 1.1 years
类型 internet

技术详情

分类 Payload
质量 575.00 kg
干质量 530.00 kg
总质量 575.00 kg
长度 0.30 m
直径 4.10 m
跨度 29.00 m
形状 Box + pan
制造商 SPXS
平台类型 Starlink V2MO
阶段状态 In Orbit
所有者/国家 SPXS/US

Most Searched